Location: Elkol
(41.7238°N, 110.6124°W)
Time: 22:09:35
(UTC+00:00)

BlueWalker 3 - Pass Details

Date: 07 December 2022
Orbit: 499 x 517 km, 53.2° (Epoch: 04 February)

Event Time Altitude Azimuth Distance (km) Brightness Sun altitude
Rises 02:00:40 0° 311° (NW) 2,624 6.1 -23.3°
Reaches altitude 10° 02:02:58 10° 319° (NW) 1,732 5.0 -23.7°
Enters shadow 02:04:56 25° 337° (NNW) 1,059 3.6 -24.1°
